TimeAKDT,TemperatureF,Dew PointF,Humidity,Sea Level PressureIn,VisibilityMPH,Wind Direction,Wind SpeedMPH,Gust SpeedMPH,PrecipitationIn,Events,Conditions,WindDirDegrees,DateUTC
12:53 AM,19.0,6.1,57,30.35,10.0,North,9.2,-,N/A,,Clear,360,2012-11-01 08:53:00
1:53 AM,19.9,5.0,52,30.34,10.0,North,12.7,-,N/A,,Clear,10,2012-11-01 09:53:00
2:53 AM,19.9,3.9,50,30.33,10.0,WNW,11.5,-,N/A,,Clear,300,2012-11-01 10:53:00
3:53 AM,18.0,5.0,57,30.34,10.0,NNW,15.0,-,N/A,,Clear,340,2012-11-01 11:53:00
4:53 AM,19.0,3.9,52,30.34,10.0,North,16.1,-,N/A,,Clear,10,2012-11-01 12:53:00
5:53 AM,21.0,3.0,46,30.32,10.0,East,5.8,-,N/A,,Clear,80,2012-11-01 13:53:00
6:53 AM,18.0,3.0,52,30.31,10.0,North,11.5,-,N/A,,Clear,360,2012-11-01 14:53:00
7:53 AM,18.0,5.0,57,30.32,10.0,North,13.8,-,N/A,,Clear,350,2012-11-01 15:53:00
8:53 AM,19.0,3.9,52,30.28,10.0,SW,10.4,-,N/A,,Clear,230,2012-11-01 16:53:00
9:53 AM,18.0,5.0,57,30.30,10.0,NW,6.9,-,N/A,,Clear,320,2012-11-01 17:53:00
10:53 AM,18.0,6.1,60,30.30,10.0,North,10.4,-,N/A,,Clear,360,2012-11-01 18:53:00
11:53 AM,18.0,5.0,57,30.31,10.0,North,8.1,-,N/A,,Clear,350,2012-11-01 19:53:00
12:53 PM,19.9,6.1,55,30.31,10.0,NNW,8.1,-,N/A,,Clear,340,2012-11-01 20:53:00
1:53 PM,21.9,6.1,51,30.32,10.0,North,9.2,-,N/A,,Clear,350,2012-11-01 21:53:00
2:53 PM,23.0,6.1,48,30.29,10.0,NNW,8.1,-,N/A,,Clear,340,2012-11-01 22:53:00
3:53 PM,23.0,7.0,50,30.29,10.0,NNW,8.1,-,N/A,,Clear,340,2012-11-01 23:53:00
4:53 PM,21.9,7.0,53,30.27,10.0,NNW,6.9,-,N/A,,Clear,340,2012-11-02 00:53:00
5:53 PM,19.9,7.0,57,30.25,10.0,North,5.8,-,N/A,,Scattered Clouds,350,2012-11-02 01:53:00
6:53 PM,16.0,5.0,62,30.25,10.0,Calm,Calm,-,N/A,,Scattered Clouds,0,2012-11-02 02:53:00
7:53 PM,14.0,5.0,67,30.26,10.0,Calm,Calm,-,N/A,,Scattered Clouds,0,2012-11-02 03:53:00
8:53 PM,10.9,5.0,77,30.26,10.0,NNE,3.5,-,N/A,,Scattered Clouds,30,2012-11-02 04:53:00
9:53 PM,10.9,3.9,73,30.26,10.0,Calm,Calm,-,N/A,,Scattered Clouds,0,2012-11-02 05:53:00
10:53 PM,10.9,3.9,73,30.23,10.0,Calm,Calm,-,N/A,,Scattered Clouds,0,2012-11-02 06:53:00
11:53 PM,12.0,5.0,73,30.22,10.0,Calm,Calm,-,N/A,,Scattered Clouds,0,2012-11-02 07:53:00